#timestamp,LO_Frequency,Hit,StdDev 
1604937615.3,286047005.8,N
1604937635.1,286047005.3,N
1604937655.8,286047007.1,N
1604937675.7,286047005.4,N
1604937695.5,286047005.4,N
1604937715.4,286047004.1,N
1604937735.2,286047001.8,N
1604937755.0,286047000.3,N
1604937755.9,286047000.3,N
1604937775.8,286046999.9,N
1604937795.6,286047000.2,N
1604937815.5,286047000.1,N
1604937835.3,286047000.3,N
1604937855.1,286047000.0,N
1604937875.9,286046999.9,N
1604937895.7,286047004.0,N
1604937915.5,286047002.4,N
1604937935.4,286047002.8,N
1604937955.2,286047001.9,N
1604937975.1,286047005.8,N
1604937976.0,286047005.8,N
1604937995.8,286047005.9,N
1604938015.6,286047000.2,N
1604938035.5,286046999.9,N
1604938055.3,286046996.1,N
1604938075.2,286046993.7,N
1604938095.9,286046993.8,N
1604938115.7,286046993.5,N
1604938135.6,286046994.1,N
1604938155.4,286046992.2,N
1604938175.3,286046993.2,N
1604938195.1,286046994.4,N
1604938196.0,286046994.4,N
1604938215.8,286046995.7,N
1604938235.7,286046996.5,N
1604938255.5,286046995.0,N
1604938275.3,286046999.5,N
1604938295.2,286046993.5,N
1604938315.0,286046991.8,N
1604938315.9,286046991.8,N
1604938335.8,286046994.8,N
1604938355.6,286046996.4,N
1604938375.4,286046995.2,N
1604938395.3,286046996.2,N
1604938415.1,286046994.9,N
1604938435.9,286046999.0,N
1604938455.7,286046998.4,N
1604938475.5,286046999.8,N
1604938495.4,286047000.1,N
1604938515.2,286047004.1,N
1604938535.0,286047002.9,N
1604938535.9,286047002.9,N
1604938555.8,286047001.5,N
1604938575.6,286047003.4,N
1604938595.5,286047003.0,N
1604938615.3,286047007.4,N
1604938635.1,286047002.9,N
1604938655.9,286047006.0,N
1604938675.7,286047001.3,N
1604938695.5,286047002.8,N
1604938715.4,286047002.0,N
1604938735.2,286047005.9,N
1604938755.1,286047007.2,N
1604938756.0,286047007.2,N
1604938775.8,286047003.3,N
1604938795.6,286047000.2,N
1604938815.5,286047002.5,N
1604938835.3,286046996.7,N
1604938855.1,286046995.4,N
1604938875.9,286046995.1,N
1604938895.7,286046996.8,N
1604938915.6,286046996.6,N
1604938935.4,286046999.8,N
1604938955.2,286047002.1,N
1604938975.1,286047004.8,N
1604938976.0,286047004.8,N
1604938995.8,286047005.0,N
1604939015.6,286047007.2,N
1604939035.5,286047007.1,N
1604939055.3,286047006.8,N
1604939075.2,286047009.5,N
1604939095.9,286047013.9,Y
1604939115.7,286047013.8,P
1604939135.6,286047010.3,N
1604939155.4,286047006.3,N
1604939175.3,286047010.6,N
1604939195.1,286047011.7,Y
1604939196.0,286047011.7,P
1604939215.8,286047005.1,P
1604939235.7,286047005.6,N
1604939255.5,286047005.1,N
1604939275.3,286047005.0,N
1604939295.2,286047008.4,Y
1604939315.0,286047004.3,P
1604939315.9,286047004.3,P
1604939335.8,286047003.3,N
1604939355.6,286047001.8,N
1604939375.4,286046999.9,N
1604939395.3,286047001.0,N
1604939415.1,286046998.2,N
1604939435.8,286047001.9,N
1604939455.7,286047000.7,N
1604939475.5,286046998.4,N
1604939495.4,286046995.0,N
1604939515.2,286046995.5,N
1604939535.0,286046998.0,N
1604939535.9,286046998.0,N
1604939555.8,286046997.3,N
1604939575.6,286046993.3,N
1604939595.4,286046994.0,N
1604939615.3,286046995.6,N
1604939635.1,286046995.6,N
1604939655.9,286046991.8,N
1604939675.7,286046990.6,N
1604939695.5,286046992.5,N
1604939715.4,286046993.1,N
1604939735.2,286046992.5,N
1604939755.0,286046993.1,N
1604939755.9,286046993.1,N
1604939775.8,286046991.3,N
1604939795.6,286046990.4,N
1604939815.5,286046990.1,N
1604939835.3,286046988.8,N
1604939855.1,286046989.6,N
1604939875.9,286046989.3,N
1604939895.7,286046987.4,Y
1604939915.6,286046993.3,P
1604939935.4,286046996.1,P
1604939955.2,286046994.5,P
1604939975.1,286046996.0,Y
1604939976.0,286046996.0,P
1604939995.8,286046998.6,N
1604940015.6,286046999.6,N
1604940035.5,286046995.4,N
1604940055.3,286046997.6,N
1604940075.2,286046999.2,N
1604940095.9,286046999.4,N
1604940115.7,286047001.2,N
1604940135.6,286047001.0,N
1604940155.4,286046999.4,N
1604940175.2,286046997.7,N
1604940195.1,286046994.9,N
1604940196.0,286046994.9,N
1604940215.8,286046996.6,N
1604940235.7,286046998.1,N
1604940255.5,286047000.4,N
1604940275.3,286046999.9,N
1604940295.2,286047001.0,N
1604940315.9,286047000.2,N
1604940335.7,286047002.2,N
1604940355.6,286047003.9,N
1604940375.4,286047000.5,N
1604940395.3,286046998.1,N
1604940415.1,286047002.7,N
1604940416.0,286047002.7,N
1604940435.8,286046999.9,N
1604940455.7,286047000.4,N
1604940475.5,286046999.4,N
1604940495.3,286047000.5,N
1604940515.2,286047001.1,N
1604940535.0,286046996.5,N
1604940535.9,286046996.5,N
1604940555.8,286046999.4,N
1604940575.6,286046997.3,N
1604940595.4,286046997.6,N
1604940615.3,286046995.9,N
1604940635.1,286046994.6,N
1604940655.9,286046993.8,N
1604940675.7,286046992.3,N
1604940695.5,286046994.5,N
1604940715.4,286046994.5,N
1604940735.2,286046995.8,N
1604940755.0,286046994.9,N
1604940755.9,286046994.9,N
1604940775.8,286046996.0,N
1604940795.6,286046995.5,N
1604940815.5,286046995.1,N
1604940835.3,286046993.9,N
1604940855.1,286046991.7,N
1604940875.9,286046992.0,N
1604940895.7,286046991.8,N
1604940915.6,286046992.5,N
1604940935.4,286046993.2,N
1604940955.2,286046992.8,N
1604940975.1,286046991.7,N
1604940976.0,286046991.7,N
1604940995.8,286046992.6,N
1604941015.6,286046994.6,N
1604941035.5,286046993.8,N
1604941055.3,286046995.7,N
1604941075.2,286046992.1,Y
1604941095.9,286047000.4,P
1604941115.7,286046998.1,N
1604941135.6,286046998.6,N
1604941155.4,286046998.6,N
1604941175.2,286046999.2,N
1604941195.1,286046999.5,N
1604941196.0,286046999.5,N
